Regional Weather Roundup
Issued by NWS Sterling, VA

Home | Current Version | Previous Version | Graphics & Text | Print | Product List | Glossary On
Versions: 1 2 3 4 5 6 7 8 9 10 11 12 13 14 15 16 17 18 19 20 21 22 23 24 25 26 27 28 29 30 31 32 33 34 35 36 37 38 39 40 41 42 43 44 45 46 47 48 49 50
000
ASUS41 KLWX 032010
RWRLWX

REGIONAL WEATHER ROUNDUP
NATIONAL WEATHER SERVICE BALTIMORE MD/WASHINGTON DC
400 PM EDT FRI JUL 03 2015

Note: "FAIR" indicates few or no clouds below 12,000 feet
with no significant weather and/or obstructions to visibility.
 TC=TEMPERATURE CELSIUS

 * =Non NWS site. Station does not report precipitation (e.g. rain,
    snow, etc.), thunder, or fog.

DCZ001-MDZ009-015-VAZ040>042-051-053>054-032100-
WASHINGTON METRO

CITY           SKY/WX    TMP DP  RH WIND       PRES   REMARKS
WASHINGTON NAT CLOUDY    82  62  50 S9        29.95F
DULLES         CLOUDY    78  62  57 S5        29.95F
ANDREWS AFB    PTSUNNY   78  71  79 E8        29.95F
FT BELVOIR     PTSUNNY   79  65  62 SE5       29.95F
QUANTICO       PTSUNNY   79  65  62 CALM      29.95F
COLLEGE PARK*  PTSUNNY   81  63  54 SE5       29.95F
LEESBURG*      CLOUDY    81  63  54 S10       29.97F
MANASSAS*      CLOUDY    79  64  61 S6          N/A
GAITHERSBURG*  CLOUDY    79  61  53 SE7       30.00F

$$

MDZ006>007-011-014-032100-
BALTIMORE METRO

CITY           SKY/WX    TMP DP  RH WIND       PRES   REMARKS
BWI AIRPORT    CLOUDY    79  56  45 SE6       29.95F
MD SCIENCE CTR   N/A     82  57  42 MISG      29.97F
MARTIN STATE   PTSUNNY   82  63  51 SE10      29.97F
ANNAPOLIS      CLOUDY    78  62  57 SE9       29.95F
FORT MEADE*    PTSUNNY   77  61  57 SE5       29.97F

$$

MDZ012-015-019>023-032100-
MARYLAND EASTERN SHORE

CITY           SKY/WX    TMP DP  RH WIND       PRES   REMARKS
OCEAN CITY     SUNNY     76  65  68 E8        29.98F
SALISBURY      MOSUNNY   79  62  56 SE8       29.97F
BAY BRIDGE AP*   N/A     79  59  50 S5        29.96F
CAMBRIDGE*     CLOUDY    79  63  57 S3        29.95F
EASTON*        MOSUNNY   81  66  61 W7        30.00F

$$

MDZ017>025-032100-
SOUTHERN MARYLAND

CITY           SKY/WX    TMP DP  RH WIND       PRES   REMARKS
PATUXENT RIVER CLOUDY    78  62  57 SE9       29.96F
ST INIGOES     PTSUNNY   79  63  57 E8        29.96S
LEONARDTOWN*   PTSUNNY   79  61  53 SE5       29.97F

$$

MDZ003>005-032100-
NORTH CENTRAL MARYLAND

CITY           SKY/WX    TMP DP  RH WIND       PRES   REMARKS
FREDERICK*     PTSUNNY   81  66  61 S6        29.98F
HAGERSTOWN APT CLOUDY    77  61  57 S12       29.96F
WESTMINSTER*   CLOUDY    81  63  54 SE3       29.98S

$$

MDZ501>502-032100-
WESTERN MARYLAND

CITY           SKY/WX    TMP DP  RH WIND       PRES   REMARKS
OAKLAND*       CLOUDY    63 N/A N/A SE9       30.01F HAZE
CUMBERLAND*    CLOUDY    75  64  69 E3        29.99F

$$

VAZ025>031-032100-
SHENANDOAH VALLEY

CITY           SKY/WX    TMP DP  RH WIND       PRES   REMARKS
WINCHESTER*    CLOUDY    77  63  61 SE8       29.96F
FRONT ROYAL*   CLOUDY    73  64  73 S6        29.96S
LURAY*         RAIN      72  68  88 CALM      29.98S
NEW MARKET*    CLOUDY    70  64  82 W5        29.96F
STAUNTON*      CLOUDY    73  66  79 N3        29.99F
WAYNESBORO*    CLOUDY    71  61  72 SE9       29.98F

$$

WVZ021-048>050-054>055-032100-
EASTERN WEST VIRGINIA PANHANDLE

CITY           SKY/WX    TMP DP  RH WIND       PRES   REMARKS
MARTINSBURG    CLOUDY    77  62  59 SE9       29.96F
PETERSBURG*    CLOUDY    70  64  81 CALM      29.97F

$$

VAZ036>039-050-032100-
CENTRAL FOOTHILLS

CITY           SKY/WX    TMP DP  RH WIND       PRES   REMARKS
CHARLOTTESVILL CLOUDY    76  63  64 SE5       29.96F
CULPEPER*      CLOUDY    77  64  63 S3        29.96F
ORANGE*        CLOUDY    77  63  61 CALM      29.97F
GORDONSVILLE*  CLOUDY    75  64  69 CALM      29.95F
WARRENTON*     CLOUDY    79  68  69 CALM      29.95F

$$

VAZ055>057-032100-
NORTH AND CENTRAL PIEDMONT

CITY           SKY/WX    TMP DP  RH WIND       PRES   REMARKS
FREDERICKSBRG* PTSUNNY   83  65  55 SE7       29.94F
STAFFORD*      CLOUDY    77  66  68 E3        29.99F

$$

NCZ024-NYZ072-PAZ021-071-VAZ022-071-032100-
OTHER REGIONAL OBSERVATIONS

CITY           SKY/WX    TMP DP  RH WIND       PRES   REMARKS
NEW YORK CITY  SUNNY     80  53  39 CALM      29.99F
PHILADELPHIA   PTSUNNY   80  60  50 S6        29.97S
PITTSBURGH     CLOUDY    78  57  48 E5        29.91F
ROANOKE        CLOUDY    69  66  90 N5        29.97F
RICHMOND       PTSUNNY   83  64  52 E7        29.93F
RALEIGH        LGT RAIN  75  72  90 CALM      29.92F FOG

$$

ANZ530>537-032100-
MARINE OBSERVATIONS

STATION/POSITION TIME  TEMP    WIND        PRES
                       AIR SEA DIR/SP/G
                 (UTC) (F)     (DEG/KT/KT) (MB)
THOMAS PT LIGHT  2000   76 77              1015.0F
BALT KEY BRIDGE  1900   78     130/ 10/ 12 1014.6F
COVE POINT       1900   75     190/  9/ 11 1015.6F
LEWISETTA        1900   77 80  120/ 13/ 14 1014.3F
SOLOMONS ISLAND  1900      80                N/A
PINEY POINT      1900          140/ 10/ 12   N/A

$$




USA.gov is the U.S. government's official web portal to all federal, state and local government web resources and services.